CZ-4 DEB, 26151

Orbit data source: Space-Track

CZ-4 DEB, 26151 is space debris in SSO originally from a launch on Thu, 14 Oct 1999 UTC launched from the Taiyaun Space Center, China (TSC). Debris objects in space refer to the collection of defunct objects orbiting the Earth. Examples of debris include non-operational satellites, rocket bodies, and fragments generated from explosions, collisions, or faulty payload assembly.

Loading next visibility...
Identifier
26151, 1999-057AM
Orbit
SSO
Country
Flag of CNCN / PRC
Related business
Manufacturer
Unknown
Mission
Spacecraft
Bus & Motor
Unknown
Mass
Unknown
Launch date (UTC)
1999-10-14 (26 years ago)
Launch vehicle
Unknown
Launch site
Taiyaun Space Center, China (TSC)
Object type
Payload
Rocket body
Debris
Shape & HBR
Unknown shape, 0.1 m
Radar Cross Section
Medium (>0.1 m² and <1 m²)

Expand to show TLE details & history
Last TLE update: 10 hours ago

TLE from 10 hours ago
0 CZ-4 DEB
1 26151U 99057AM  26036.79576407  .00001153  00000-0  11273-2 0  9993
2 26151  99.4425 344.2475 0610270 116.7330 278.5839 13.19087009241520
Epoch: 2026-02-05T19:05Z
TLE epoch observation values (Epoch: 2026-02-05T19:05:54.015Z)
Latitude
27.96333°
Longitude
-83.20995°
Altitude
1,150.455 km
Speed
7.3 km/s
True Right ascension
22h 36m 49s
True Declination
27° 49' 43"
Sunlit
Object was in daylight at epoch
Visualization orbit readout
Latitude
Unknown
Longitude
Unknown
Altitude
Unknown
Speed
Unknown
Apparent Right ascension
Unknown
Apparent Declination
Unknown
Sunlit
N/A
Visualization observer readout
Local Sidereal Time
07:36:23
Azimuth
Unknown
Elevation
Unknown
Doppler factor
Unknown
Orbital elements
Apogee altitude
1,647.112 km
Perigee altitude
723.937 km
Semi-major axis
7,563.661 km
Eccentricity
0.06103
Inclination
99.4425°
RAAN
344.2475°
Arg. of periapsis
116.733°
True anomaly
271.60676°
Mean anomaly
278.5839°
Eccentric anomaly
275.10116°
Mean motion
3.29948 °/min
Orbital period
109.11 mins
BSTAR
0.0011273
Loading maneuver chart data...
Computing Atmospheric mass density...
Loading historical data...
Loading historical data...
Loading historical data...
Loading historical data...
Loading historical data...
Loading historical data...
Loading historical data...

Documentation

Showing up to 5 results
|